Mount Holly, NJ

12:58 PM EDT on September 15, 2019 (GMT -0400)
South Jersey Regional

Weather History for KVAY - August, 2019

Change the Weather History Date:

Tuesday, August 20, 2019

  Actual Average (KPNE) Record (KPNE)
Temperature  
Mean Temperature 79 °F -  
Max Temperature 89 °F 83 °F 93 °F (2010)
Min Temperature 70 °F 65 °F 54 °F (1998)
Cooling Degree Days 14    
Growing Degree Days 29 (Base 50)    
Moisture  
Dew Point 71 °F    
Average Humidity 82    
Maximum Humidity 97    
Minimum Humidity 55    
Precipitation  
Precipitation 0.00 in - - ()
Sea Level Pressure  
Sea Level Pressure 30.05 in    
Wind  
Wind Speed 1 mph (ESE)    
Max Wind Speed 8 mph    
Max Gust Speed -    
Visibility 7 miles    
Events Fog    
Averages and records for this station are not official NWS values.
T = Trace of Precipitation, MM = Missing Value Source: NWS Daily Summary

Daily Weather History Graph

Daily Weather History Graph

Search for Another Location

Airport or City:

Astronomy

Aug. 20, 2019 Rise Set
Actual Time 6:15 AM EDT 7:49 PM EDT
Civil Twilight 5:47 AM EDT 8:17 PM EDT
Nautical Twilight 5:12 AM EDT 8:52 PM EDT
Astronomical Twilight 4:35 AM EDT 9:28 PM EDT
Moon 10:36 PM EDT (8/20) 10:51 AM EDT (8/20)
Length of Visible Light 14h 30m
Length of Day
13h 33m
Waning Gibbous, 78% of the Moon is Illuminated
Aug 20
Waning Gibbous
Aug 23
Last Quarter
Aug 30
New
Sep 5
First Quarter
Sep 14
Full

Hourly Weather History & Observations

Time (EDT) Temp. Heat Index Dew Point Humidity Pressure Visibility Wind Dir Wind Speed Gust Speed Precip Events Conditions
12:54 AM 72.0 °F - 71.1 °F 97% 30.02 in 8.0 mi Calm Calm - N/A   Clear
1:54 AM 72.0 °F - 71.1 °F 97% 30.02 in 7.0 mi Calm Calm - N/A   Scattered Clouds
2:54 AM 72.0 °F - 70.0 °F 93% 30.02 in 6.0 mi Calm Calm - N/A   Clear
3:51 AM 71.6 °F - 69.8 °F 94% 30.03 in 0.5 mi Calm Calm - N/A Fog Fog
3:54 AM 71.1 °F - 69.1 °F 93% 30.03 in 1.0 mi Calm Calm - N/A   Mist
3:56 AM 71.1 °F - 69.1 °F 93% 30.03 in 2.5 mi Calm Calm - N/A   Partly Cloudy
4:03 AM 71.1 °F - 69.1 °F 93% 30.03 in 8.0 mi Calm Calm - N/A   Partly Cloudy
4:54 AM 71.1 °F - 69.1 °F 93% 30.04 in 7.0 mi Calm Calm - N/A   Clear
5:24 AM 71.1 °F - 69.1 °F 93% 30.05 in 1.5 mi Calm Calm - N/A   Clear
5:31 AM 70.0 °F - 69.1 °F 97% 30.05 in 0.8 mi Calm Calm - N/A   Clear
5:40 AM 70.0 °F - 69.1 °F 97% 30.06 in 1.0 mi Calm Calm - N/A   Clear
5:46 AM 70.0 °F - 68.0 °F 93% 30.06 in 2.0 mi Calm Calm - N/A   Clear
5:54 AM 70.0 °F - 69.1 °F 97% 30.06 in 4.0 mi Calm Calm - N/A   Clear
6:54 AM 71.1 °F - 70.0 °F 96% 30.08 in 5.0 mi Calm Calm - N/A   Clear
7:54 AM 75.9 °F - 72.0 °F 87% 30.09 in 10.0 mi Calm Calm - N/A   Clear
8:54 AM 79.0 °F - 70.0 °F 74% 30.09 in 10.0 mi NNE 4.6 mph - N/A   Clear
9:54 AM 81.0 °F 84.9 °F 71.1 °F 72% 30.10 in 10.0 mi ENE 5.8 mph - N/A   Clear
10:54 AM 84.0 °F 89.6 °F 72.0 °F 67% 30.10 in 10.0 mi ENE 3.5 mph - N/A   Clear
11:54 AM 86.0 °F 92.2 °F 72.0 °F 63% 30.09 in 10.0 mi Variable 4.6 mph - N/A   Partly Cloudy
12:54 PM 87.1 °F 92.0 °F 70.0 °F 57% 30.08 in 10.0 mi Variable 6.9 mph - N/A   Clear
1:54 PM 88.0 °F 93.8 °F 71.1 °F 57% 30.08 in 10.0 mi ESE 4.6 mph - N/A   Clear
2:54 PM 87.1 °F 92.8 °F 71.1 °F 59% 30.06 in 10.0 mi East 8.1 mph - N/A   Scattered Clouds
3:54 PM 88.0 °F 92.9 °F 70.0 °F 55% 30.05 in 10.0 mi Variable 3.5 mph - N/A   Partly Cloudy
4:54 PM 88.0 °F 93.8 °F 71.1 °F 57% 30.04 in 10.0 mi SE 4.6 mph - N/A   Clear
5:54 PM 86.0 °F 91.5 °F 71.1 °F 61% 30.03 in 10.0 mi SE 3.5 mph - N/A   Clear
6:54 PM 82.9 °F 87.5 °F 71.1 °F 67% 30.02 in 10.0 mi Calm Calm - N/A   Partly Cloudy
7:54 PM 80.1 °F 83.8 °F 72.0 °F 76% 30.01 in 10.0 mi SE 3.5 mph - N/A   Clear
8:54 PM 79.0 °F - 71.1 °F 77% 30.05 in 10.0 mi Calm Calm - N/A   Clear
9:54 PM 77.0 °F - 73.0 °F 88% 30.04 in 10.0 mi ESE 3.5 mph - N/A   Clear
10:54 PM 75.0 °F - 72.0 °F 90% 30.03 in 10.0 mi North - - N/A   Unknown
11:54 PM 75.0 °F - 73.0 °F 94% 30.03 in 8.0 mi Calm Calm - N/A   Clear